Date String (YYYY-MM-DD hh:mm:ss) UTC,Instrument flags,absolute air pressure of the measurement (hPa),sample flow rate (lpm),inlet stack bypass flow (lpm),air temperature of the measurement (°C),ambient temperature measured by the external sensor (°C),aerosol sample conditioner tube jacket temperature (°C),OPC LED temperature (°C),internal box temperature (°C),relative humidity of the measurement (%),span deviation,mass concentration of particles derived from Lorenz-Mie calculation of OPC scattering (μg/m³),mass concentration of particles derived from Lorenz-Mie calculation of OPC scattering (μg/m³),mass concentration of particles derived from Lorenz-Mie calculation of OPC scattering (μg/m³)
DateTimeUTC,F1_M11,P_M11,Q1_M11,Q2_M11,T1_M11,T2_M11,T3_M11,T4_M11,T5_M11,U1_M11,ZSPAN_M11,X2_M11,X0_M11,X1_M11
2023-07-23 21:00:00,SystemResetWarning,0833.1,4.99,000.00,028.5,025.6,000.0,036.7,029.9,19.4,0000.0,0004.88,0009.34,0004.39
2023-07-23 21:01:00,SystemResetWarning,0833.2,4.99,000.00,028.5,026.0,000.0,036.8,030.0,19.5,0000.0,0004.87,0009.39,0004.38
2023-07-23 21:02:00,SystemResetWarning,0833.1,5.00,000.00,028.5,026.4,000.0,036.8,030.1,19.4,0000.0,0004.84,0009.77,0004.38
2023-07-23 21:03:00,SystemResetWarning,0833.1,5.01,000.00,028.6,026.9,000.0,036.8,030.2,20.1,0000.0,0004.85,0009.72,0004.39
2023-07-23 21:04:00,SystemResetWarning,0833.2,5.01,000.00,028.6,027.2,000.0,036.8,030.4,20.7,0000.0,0004.88,0009.72,0004.40
2023-07-23 21:05:00,SystemResetWarning,0833.1,4.99,000.00,028.7,026.2,000.0,036.8,030.3,20.2,0000.0,0004.89,0009.94,0004.41
2023-07-23 21:06:00,SystemResetWarning,0833.2,5.00,000.00,028.6,025.0,000.0,036.7,030.1,19.2,0000.0,0004.91,0010.05,0004.42
2023-07-23 21:07:00,SystemResetWarning,0833.1,5.02,000.00,028.5,025.1,000.0,036.6,030.1,20.4,0000.0,0004.88,0009.86,0004.41
2023-07-23 21:08:00,SystemResetWarning,0833.2,4.99,000.00,028.5,025.5,000.0,036.7,030.0,18.6,0000.0,0004.83,0009.78,0004.42
2023-07-23 21:09:00,SystemResetWarning,0833.2,4.99,000.00,028.5,026.0,000.0,036.7,030.0,18.5,0000.0,0004.82,0010.35,0004.42
2023-07-23 21:10:00,SystemResetWarning,0833.2,5.00,000.00,028.5,026.4,000.0,036.8,030.1,19.3,0000.0,0004.85,0010.12,0004.43
2023-07-23 21:11:00,SystemResetWarning,0833.2,5.01,000.00,028.6,026.8,000.0,036.8,030.2,18.0,0000.0,0004.83,0010.24,0004.42
2023-07-23 21:12:00,SystemResetWarning,0833.2,5.01,000.00,028.6,027.1,000.0,036.8,030.3,19.3,0000.0,0004.83,0010.08,0004.43
2023-07-23 21:13:00,SystemResetWarning,0833.1,4.99,000.00,028.6,026.2,000.0,036.8,030.2,21.8,0000.0,0004.85,0009.37,0004.45
2023-07-23 21:14:00,SystemResetWarning,0833.2,4.99,000.00,028.6,024.9,000.0,036.7,030.0,21.6,0000.0,0004.88,0009.38,0004.46
2023-07-23 21:15:00,SystemResetWarning,0833.1,5.01,000.00,028.5,025.0,000.0,036.7,030.0,22.6,0000.0,0004.90,0009.39,0004.48
2023-07-23 21:16:00,SystemResetWarning,0833.1,5.01,000.00,028.5,025.4,000.0,036.7,029.9,20.7,0000.0,0004.94,0009.18,0004.49
2023-07-23 21:17:00,SystemResetWarning,0833.1,4.99,000.00,028.5,025.9,000.0,036.7,030.0,22.6,0000.0,0004.94,0009.00,0004.49
2023-07-23 21:18:00,SystemResetWarning,0833.1,5.01,000.00,028.5,026.3,000.0,036.8,030.1,21.0,0000.0,0004.95,0008.86,0004.51
2023-07-23 21:19:00,SystemResetWarning,0833.1,5.01,000.00,028.6,026.8,000.0,036.8,030.3,21.3,0000.0,0004.97,0008.89,0004.53
2023-07-23 21:20:00,SystemResetWarning,0833.1,4.99,000.00,028.6,027.2,000.0,036.8,030.3,20.1,0000.0,0005.00,0008.22,0004.54
2023-07-23 21:21:00,SystemResetWarning,0833.1,4.99,000.00,028.7,027.0,000.0,036.8,030.4,21.9,0000.0,0005.00,0008.04,0004.56
2023-07-23 21:22:00,SystemResetWarning,0833.2,4.99,000.00,028.6,025.6,000.0,036.7,030.2,21.6,0000.0,0004.97,0007.90,0004.58
2023-07-23 21:23:00,SystemResetWarning,0833.1,5.01,000.00,028.6,024.9,000.0,036.7,030.0,23.2,0000.0,0004.96,0007.73,0004.59
2023-07-23 21:24:00,SystemResetWarning,0833.0,5.01,000.00,028.5,025.3,000.0,036.7,030.0,22.9,0000.0,0005.00,0007.76,0004.61
2023-07-23 21:25:00,SystemResetWarning,0833.2,4.99,000.00,028.5,025.7,000.0,036.7,029.9,23.1,0000.0,0005.04,0007.83,0004.63
2023-07-23 21:26:00,SystemResetWarning,0833.3,5.00,000.00,028.5,026.1,000.0,036.8,030.1,22.2,0000.0,0005.02,0007.89,0004.63
2023-07-23 21:27:00,SystemResetWarning,0833.2,5.01,000.00,028.6,026.6,000.0,036.8,030.2,25.2,0000.0,0005.04,0007.92,0004.63
2023-07-23 21:28:00,SystemResetWarning,0833.2,4.99,000.00,028.6,027.0,000.0,036.8,030.3,26.2,0000.0,0005.06,0007.95,0004.64
2023-07-23 21:29:00,SystemResetWarning,0833.1,5.00,000.00,028.7,027.3,000.0,036.8,030.4,24.0,0000.0,0005.07,0007.99,0004.65
2023-07-23 21:30:00,SystemResetWarning,0833.0,4.98,000.00,028.7,026.4,000.0,036.8,030.3,20.6,0000.0,0005.07,0008.04,0004.66
2023-07-23 21:31:00,SystemResetWarning,0833.0,5.01,000.00,028.6,025.0,000.0,036.7,030.1,21.3,0000.0,0005.05,0008.00,0004.67
2023-07-23 21:32:00,SystemResetWarning,0833.0,5.01,000.00,028.6,025.0,000.0,036.7,030.0,20.3,0000.0,0005.06,0008.84,0004.66
2023-07-23 21:33:00,SystemResetWarning,0833.0,4.99,000.00,028.5,025.4,000.0,036.7,029.9,20.2,0000.0,0005.07,0009.38,0004.65
2023-07-23 21:34:00,SystemResetWarning,0833.1,4.99,000.00,028.5,025.8,000.0,036.8,030.0,19.8,0000.0,0005.11,0009.49,0004.66
2023-07-23 21:35:00,SystemResetWarning,0833.2,5.01,000.00,028.5,026.3,000.0,036.8,030.1,19.2,0000.0,0005.13,0009.52,0004.67
2023-07-23 21:36:00,SystemResetWarning,0833.2,5.01,000.00,028.6,026.7,000.0,036.8,030.2,19.9,0000.0,0005.09,0009.47,0004.67
2023-07-23 21:37:00,SystemResetWarning,0833.2,5.00,000.00,028.6,027.0,000.0,036.8,030.4,20.8,0000.0,0005.08,0009.55,0004.68
2023-07-23 21:38:00,SystemResetWarning,0833.1,4.98,000.00,028.6,026.2,000.0,036.8,030.2,20.8,0000.0,0005.05,0009.52,0004.69
2023-07-23 21:39:00,SystemResetWarning,0833.2,5.02,000.00,028.6,024.9,000.0,036.7,030.0,21.4,0000.0,0005.04,0009.46,0004.71
2023-07-23 21:40:00,SystemResetWarning,0833.2,5.01,000.00,028.5,024.9,000.0,036.6,030.0,23.2,0000.0,0005.04,0009.45,0004.72
2023-07-23 21:41:00,SystemResetWarning,0833.2,5.00,000.00,028.5,025.3,000.0,036.7,029.9,21.1,0000.0,0005.09,0009.83,0004.73
2023-07-23 21:42:00,SystemResetWarning,0833.2,5.00,000.00,028.5,025.8,000.0,036.7,029.9,18.3,0000.0,0005.16,0010.93,0004.74
2023-07-23 21:43:00,SystemResetWarning,0833.2,4.99,000.00,028.5,026.2,000.0,036.8,030.1,19.6,0000.0,0005.18,0010.27,0004.75
2023-07-23 21:44:00,SystemResetWarning,0833.3,5.00,000.00,028.5,026.7,000.0,036.8,030.2,20.6,0000.0,0005.22,0009.76,0004.76
2023-07-23 21:45:00,SystemResetWarning,0833.2,4.99,000.00,028.6,027.1,000.0,036.8,030.3,20.5,0000.0,0005.22,0010.08,0004.79
2023-07-23 21:46:00,SystemResetWarning,0833.3,4.99,000.00,028.6,027.0,000.0,036.8,030.3,20.1,0000.0,0005.21,0010.01,0004.80
2023-07-23 21:47:00,SystemResetWarning,0833.2,5.00,000.00,028.6,025.6,000.0,036.7,030.1,19.3,0000.0,0005.23,0010.03,0004.83
2023-07-23 21:48:00,SystemResetWarning,0833.3,5.01,000.00,028.5,024.9,000.0,036.7,030.0,20.2,0000.0,0005.27,0009.95,0004.86
2023-07-23 21:49:00,SystemResetWarning,0833.3,5.01,000.00,028.5,025.2,000.0,036.7,029.9,21.4,0000.0,0005.31,0009.91,0004.88
2023-07-23 21:50:00,SystemResetWarning,0833.4,5.00,000.00,028.4,025.6,000.0,036.7,029.9,20.7,0000.0,0005.34,0010.12,0004.89
2023-07-23 21:51:00,SystemResetWarning,0833.4,5.00,000.00,028.5,026.0,000.0,036.7,030.0,21.3,0000.0,0005.38,0010.53,0004.91
2023-07-23 21:52:00,SystemResetWarning,0833.4,5.00,000.00,028.5,026.5,000.0,036.8,030.1,21.4,0000.0,0005.38,0010.75,0004.92
2023-07-23 21:53:00,SystemResetWarning,0833.4,5.00,000.00,028.5,026.9,000.0,036.8,030.2,22.2,0000.0,0005.33,0009.49,0004.91
2023-07-23 21:54:00,SystemResetWarning,0833.5,4.99,000.00,028.6,027.2,000.0,036.8,030.3,21.2,0000.0,0005.33,0009.53,0004.93
2023-07-23 21:55:00,SystemResetWarning,0833.4,5.00,000.00,028.6,026.4,000.0,036.8,030.2,18.6,0000.0,0005.33,0010.08,0004.95
2023-07-23 21:56:00,SystemResetWarning,0833.4,5.01,000.00,028.6,025.0,000.0,036.7,030.0,19.0,0000.0,0005.35,0009.75,0004.94
2023-07-23 21:57:00,SystemResetWarning,0833.5,5.01,000.00,028.5,024.9,000.0,036.6,030.0,19.2,0000.0,0005.36,0009.79,0004.94
2023-07-23 21:58:00,SystemResetWarning,0833.5,5.02,000.00,028.5,025.3,000.0,036.7,029.9,19.3,0000.0,0005.37,0009.81,0004.93
2023-07-23 21:59:00,SystemResetWarning,0833.5,5.00,000.00,028.5,025.7,000.0,036.7,030.0,18.8,0000.0,0005.36,0009.76,0004.92
